11 Apr
2007
11 Apr
'07
1:36 p.m.
ISS 1 25544U 98067A 07100.56489780 .00014454 00000-0 83988-4 0 9960 2 25544 051.6347 093.3468 0016014 052.3831 049.1810 15.78648763480094
6494
Age (days ago)
6494
Last active (days ago)
0 comments
1 participants
participants (1)
-
Dave Larsen PhD